This is the latest recevied weather packets stored in our database for station/object AC4AG. If no packets are shown the sender has not sent any weather packets the latest 10 day(s).
| Time | Temp. | Humidity | Pressure | Rain* | Wind** | Luminosity | Snow |
|---|---|---|---|---|---|---|---|
| 1777254443 | 17.22° C | 72% | 1014.4 hPa | 0 mm | - | 0 W/m² | - |
| 1777254139 | 17.78° C | 70% | 1014.5 hPa | 0 mm | - | 0 W/m² | - |
| 1777253835 | 17.22° C | 70% | 1014.5 hPa | 0 mm | - | 0 W/m² | - |
| 1777253532 | 17.78° C | 70% | 1014.3 hPa | 0 mm | - | 0 W/m² | - |
| 1777253230 | 17.78° C | 69% | 1014.1 hPa | 0 mm | - | 0 W/m² | - |
| 1777252928 | 18.33° C | 68% | 1014.1 hPa | 0 mm | - | 0 W/m² | - |
| 1777252625 | 18.33° C | 68% | 1014.1 hPa | 0 mm | - | 0 W/m² | - |
| 1777252322 | 18.33° C | 67% | 1014 hPa | 0 mm | - | 0 W/m² | - |
| 1777252019 | 18.89° C | 67% | 1013.8 hPa | 0 mm | - | 0 W/m² | - |
| 1777251716 | 18.89° C | 67% | 1013.6 hPa | 0 mm | - | 0 W/m² | - |
| 1777251413 | 18.89° C | 66% | 1013.5 hPa | 0 mm | - | 0 W/m² | - |
| 1777251109 | 18.89° C | 66% | 1013.3 hPa | 0 mm | - | 0 W/m² | - |
| 1777250805 | 18.89° C | 66% | 1013.2 hPa | 0 mm | - | 0 W/m² | - |
| 1777250502 | 19.44° C | 65% | 1013.5 hPa | 0 mm | - | 0 W/m² | - |
| 1777250203 | 19.44° C | 65% | 1013.6 hPa | 0 mm | - | 0 W/m² | - |
| 1777249899 | 20° C | 64% | 1013.6 hPa | 0 mm | - | 1 W/m² | - |
| 1777249596 | 20° C | 63% | 1013.4 hPa | 0 mm | - | 2 W/m² | - |
| 1777249292 | 20° C | 63% | 1013.2 hPa | 0 mm | - | 4 W/m² | - |
| 1777248989 | 20.56° C | 62% | 1013 hPa | 0 mm | - | 9 W/m² | - |
| 1777248685 | 20.56° C | 62% | 1013.1 hPa | 0 mm | - | 12 W/m² | - |
| 1777248381 | 21.11° C | 61% | 1013 hPa | 0 mm | - | 17 W/m² | - |
| 1777248078 | 21.11° C | 61% | 1013.1 hPa | 0 mm | - | 22 W/m² | - |
| 1777247776 | 21.67° C | 60% | 1013 hPa | 0 mm | - | 29 W/m² | - |
| 1777247474 | 21.67° C | 60% | 1012.8 hPa | 0 mm | - | 36 W/m² | - |
| 1777247172 | 22.22° C | 59% | 1013 hPa | 0 mm | - | 44 W/m² | - |
* Rain latest hour (hover to see other rain measurements)
** Current wind speed in m/s (hover to see current wind gust speed)